星链-33892 (STARLINK-33892)

导读 | 豆包AI

STARLINK-33892是美国SpaceX星链星座的组网卫星,于2025年5月2日发射升空。星链项目旨在构建全球卫星互联网星座,为全球偏远地区、海洋航空等场景提供低成本宽带接入服务,该卫星是星链低轨星座扩容的组成部分,服务于星座全球覆盖能力的完善,支撑星链系统通信服务稳定性提升。

基本信息
目录编号:
63783
目录名称:
STARLINK-33892
国际标识:
2025-091J
轨道中心:
EARTH
卫星名称:
星链-33892
卫星全名:
星链-33892 (STARLINK-33892)
卫星状态:
在轨 (已飞行362 天)
发射日期:
2025-05-02 UTC
国别 :
美国 (US)
星等 :
--
轨道信息
数据来源 国际轨道数据
星历时间: 2026-04-29T09:07:21+0800
17小时前
查看轨道信息
半长轴: 6861.083km
偏心率: 0.0000838
轨道倾角: 42.997°
近地点辐角 281.505°
升交点赤经 128.137°
平近点角 78.571°
近地点: 482.371km
远地点: 483.521km
周期: 94.265分钟
每日圈数: 15.276146
详细信息
固有亮度:
5
最大亮度:
2.5
卫星平台:
Starlink V1.0
覆盖范围:
全球
运营商:
太空探索技术公司
运营商所在国:
美国
制造商(研发单位):
太空探索技术公司
制造商所在国:
美国
使用方式:
暂无
卫星简介
Starlink 计划是 SpaceX 推出的全球卫星互联网项目,通过发射低轨道卫星,为全球尤其是偏远地区提供高速、低延迟的互联网服务。自 2019 年起,Starlink 已部署数千颗卫星,旨在缩小全球数字鸿沟,推动互联网普及。该项目还为军事、航空等行业提供通信支持,带来广泛经济效益。
2D轨道图
3D轨道图
轨道高度分析图
轨道倾角分析图
轨道综合分析图
查看轨道综合分析图